sat.trackr.live / text

‹ back to catalog

STARLINK-34618

NORAD 64770 · 2025-147R

PAYLOAD ACTIVE UNKNOWN

§ Identity

Operator
Country
US
Launch date
2025-07-08
Launch site
AFETR
Launch vehicle
Mass (kg)
RCS (m²)

Purposes: comms

External: N2YO · Heavens-Above · Gunter

§ Orbital elements

Epoch: 2026-05-24T16:57:48.041856Z

Period
93.85 min
Inclination
53.1589°
Eccentricity
0.0001024
Mean motion
15.34383588 rev/d
Perigee alt
462.1 km
Apogee alt
463.5 km
Semi-major
6,840.9 km
B*
9.0179e-4
RAAN
248.7157°
Arg perigee
79.5462°
Mean anomaly
280.5656°
Rev number
5,033

§ Raw data

STARLINK-346181 64770U 25147R   26144.70680604  .00030199  00000+0  90179-3 0  99912 64770  53.1589 248.7157 0001024  79.5462 280.5656 15.34383588 50332

JSON: /api/v1/satellites/64770 · /tle

For live sub-satellite position, see the globe view (requires WebGL).

§ Visibility from observer

Set your observer location to see the next 7 days of passes ≥ 10°. The values pass through the URL so the page stays shareable.

No JS? Fill the form by hand. The geolocation button needs JavaScript.